Date,TemperatureHighF,TemperatureAvgF,TemperatureLowF,DewpointHighF,DewpointAvgF,DewpointLowF,HumidityHigh,HumidityAvg,HumidityLow,PressureMaxIn,PressureMinIn,WindSpeedMaxMPH,WindSpeedAvgMPH,GustSpeedMaxMPH,PrecipitationSumIn
2013-2-1,59.5,54.4,48.7,44.2,35.2,28.5,69,49,35,30.08,29.92,17,4,31,0.00
2013-2-2,64.4,56.6,48.4,54.2,47.8,41.9,84,73,54,29.92,29.78,10,3,16,0.00
2013-2-3,65.4,61.2,58.8,55.9,54.6,52.8,88,79,66,29.94,29.80,15,9,32,0.00
2013-2-4,66.1,61.1,57.7,55.9,54.1,50.8,89,78,60,30.00,29.93,5,2,13,0.00
2013-2-5,65.3,59.5,54.9,54.5,50.2,46.4,87,72,53,30.01,29.86,8,4,16,0.00
2013-2-6,62.4,56.5,50.9,52.9,47.6,43.2,81,72,60,29.86,29.69,8,3,13,0.00
2013-2-7,62.3,57.0,51.1,52.8,49.0,44.1,89,75,63,29.73,29.53,18,7,43,1.11
2013-2-8,57.6,53.6,49.2,46.5,42.3,39.1,77,66,55,29.77,29.55,9,4,18,0.00
2013-2-9,60.2,52.7,45.7,43.3,40.8,38.2,81,65,46,29.89,29.77,9,4,18,0.00
2013-2-10,59.0,53.4,48.8,42.0,39.0,36.2,71,58,44,29.90,29.81,8,3,14,0.00
2013-2-11,55.6,50.7,47.1,40.8,36.3,31.9,77,58,43,30.07,29.79,14,6,24,0.00
2013-2-12,59.5,52.8,44.5,48.7,41.4,33.8,74,65,49,30.09,30.01,8,4,17,0.00
2013-2-13,57.4,54.1,48.5,50.3,47.4,44.0,92,79,63,30.01,29.91,15,5,35,1.52
2013-2-14,55.8,50.7,48.2,48.7,45.9,43.4,89,84,68,29.93,29.70,9,4,16,0.95
2013-2-15,54.7,50.0,46.6,46.3,44.1,42.1,87,80,69,30.04,29.70,13,4,23,0.41
2013-2-16,59.6,51.9,47.6,45.8,43.7,41.9,87,74,55,30.08,30.02,7,4,15,0.12
2013-2-17,49.0,47.8,45.6,45.6,42.5,38.8,89,82,74,30.09,29.97,12,5,26,0.99
2013-2-18,56.9,49.1,42.8,41.7,39.5,36.8,85,70,47,30.11,30.06,7,3,15,0.00
2013-2-19,58.0,51.8,47.2,50.9,45.1,39.6,91,78,66,30.07,29.79,9,3,18,0.30
2013-2-20,59.7,53.0,46.5,43.3,38.6,30.6,77,60,34,30.08,29.84,9,4,20,0.03
2013-2-21,57.1,53.0,49.1,50.2,44.3,40.7,86,73,62,30.07,29.74,7,4,16,0.02
2013-2-22,59.0,54.0,50.9,52.5,49.7,47.2,93,86,72,29.75,29.59,11,5,30,5.56
2013-2-23,63.9,55.8,49.3,52.6,48.9,46.8,91,78,58,30.05,29.75,7,2,11,0.00
2013-2-24,67.2,59.9,52.5,55.9,51.1,47.4,91,74,56,30.11,30.04,8,4,17,0.00
2013-2-25,69.6,61.9,56.7,55.5,52.8,49.4,87,73,50,30.10,29.99,11,5,22,0.00
2013-2-26,66.6,60.4,53.9,55.7,48.8,38.3,88,67,36,30.06,29.98,11,4,19,0.00
2013-2-27,59.3,55.0,52.3,44.9,41.4,36.6,72,61,44,30.08,29.96,15,6,26,0.00
2013-2-28,55.7,51.1,48.5,42.3,40.6,38.3,75,67,59,30.23,30.08,11,6,24,0.00